Home > Weather > Hamamatsu > Past weeks

Flag for Japan Weather for the Past 2 Weeks in Hamamatsu, Japan

Now
67 °F

Fog.


Feels Like: 67 °F
Forecast: 60 / 69 °F
Wind: 6 mph from Northeast

Location: Omaezaki

Current Time: May 3, 2016 at 3:09:57 PM

Latest Report: May 3, 2016 at 1:00 PM


Visibility: 5 mi

Pressure: 30.06 "Hg

Humidity: 83%

Dew Point: 62 °F

Location of HamamatsuLocation

Historic Weather in Hamamatsu — Graph

°F

Hamamatsu Temperature Yesterday

Maximum temperature yesterday: 69 °F (at 3:00 PM)
Minimum temperature yesterday: 61 °F (at 3:00 AM)
Average temperature yesterday: 64 °F

High & Low Weather Summary for the Past Weeks

 TemperatureHumidityPressure
High72 °F (Apr 29, 3:00 PM)100% (Apr 22, 5:00 AM)30.29 "Hg (Apr 22, 5:00 AM)
Low49 °F (Apr 30, 5:00 AM)29% (Apr 29, 3:00 PM)29.32 "Hg (Apr 29, 12:00 AM)
Average62 °F74%29.94 "Hg
* Reported Apr 18 8:00 PM — May 3 1:00 PM, Hamamatsu, Weather by CustomWeather, © 2016

Note: Actual official high and low records may vary slightly from our data, if they occured in-between our weather recording intervals... More about our weather records

Advertising

Hamamatsu Weather History for the Previous 24 Hours

Scroll right to see more
 ConditionsComfort  
Time TempWeatherWind HumidityBarometerVisibility
1:00 PM
Tue, May 3
67 °FFog.6 mph83%30.06 "Hg5 mi
12:00 PM68 °FFog.7 mph81%30.08 "Hg5 mi
10:00 AM66 °FFog.6 mph86%30.12 "Hg5 mi
9:00 AM67 °FFog.6 mph86%30.12 "Hg5 mi
8:00 AM65 °FFog.5 mph89%30.12 "Hg4 mi
7:00 AM64 °FFog.5 mph90%30.13 "Hg4 mi
6:00 AM63 °FFog.6 mph97%30.13 "Hg2 mi
5:00 AM62 °FFog.6 mph97%30.12 "Hg2 mi
4:00 AM63 °FFog.5 mph97%30.13 "Hg1 mi
3:00 AM63 °FFog.5 mph97%30.13 "Hg2 mi
2:00 AM63 °FFog.5 mph95%30.14 "Hg2 mi
1:00 AM63 °FFog.6 mph94%30.16 "Hg3 mi
12:00 AM64 °FFog.7 mph92%30.17 "Hg4 mi
11:00 PM
Mon, May 2
64 °FFog.8 mph91%30.17 "Hg4 mi
10:00 PM64 °FFog.7 mph90%30.18 "Hg4 mi
9:00 PM64 °FFog.8 mph91%30.18 "Hg5 mi
8:00 PM64 °FFog.8 mph91%30.17 "Hg4 mi
7:00 PM65 °FFog.9 mph89%30.16 "Hg5 mi
6:00 PM66 °FFog.9 mph86%30.14 "Hg6 mi
5:00 PM67 °FMild.12 mph81%30.12 "Hg7 mi
4:00 PM68 °FMild.13 mph80%30.10 "Hg7 mi
3:00 PM69 °FMild.13 mph76%30.11 "Hg7 mi
Weather by CustomWeather, © 2016

See weather overviewHow to use our weather pages